Flag for U.S.A. Weather past 2 weeks in Temple, Texas, U.S.A.

Now
76 °F

Clear.


Feels Like: 77 °F
Forecast: 75 / 99 °F
Wind: 5 mph from Southeast

Location: Fort Hood AAF Airport

Current Time: Aug 23, 2014 at 7:12:26 AM

Latest Report: Aug 23, 2014 at 5:56 AM


Visibility: 10 mi

Pressure: 30.02 "Hg

Humidity: 82%

Dew point: 70 °F

Location of TempleLocation

Historic Weather in Temple — Graph

°F

Temple temperature yesterday

Maximum temperature yesterday: 102 °F (at 2:56 PM)
Minimum temperature yesterday: 78 °F (at 6:56 AM)
Average temperature yesterday: 90 °F

Past Weeks' High & Low Weather Summary

 TemperatureHumidityPressure
High104 °F (Aug 10, 3:56 PM)89% (Aug 17, 5:03 PM)30.17 "Hg (Aug 17, 5:03 PM)
Low71 °F (Aug 13, 6:56 AM)21% (Aug 12, 6:56 PM)29.85 "Hg (Aug 18, 6:56 PM)
Average88 °F53%30.00 "Hg
* Reported Aug 8 5:56 AM — Aug 23 5:56 AM, Temple, Weather by CustomWeather, © 2014

Note: Actual official high and low records may vary slightly from our data, if they occured in-between our weather recording intervals... More about our weather records

Advertising

Temple weather history for previous 24 hours

 ConditionsComfort  
Time TempWeatherWind HumidityBarometerVisibility
5:56 AM
Aug 23
76 °FClear.5 mph82%30.02 "Hg10 mi
4:56 AM78 °FClear.6 mph74%30.01 "Hg10 mi
3:56 AM80 °FClear.7 mph67%30.05 "Hg10 mi
2:56 AM82 °FClear.8 mph58%30.01 "Hg10 mi
1:56 AM84 °FClear.10 mph53%30.01 "Hg10 mi
12:56 AM86 °FClear.12 mph46%30.05 "Hg10 mi
11:56 PM
Aug 22
88 °FClear.14 mph40%30.05 "Hg10 mi
10:56 PM89 °FClear.10 mph42%29.99 "Hg10 mi
9:56 PM91 °FClear.7 mph37%29.99 "Hg10 mi
8:56 PM93 °FSunny.7 mph33%29.97 "Hg10 mi
7:56 PM96 °FSunny.8 mph29%29.96 "Hg10 mi
6:56 PM99 °FSunny.12 mph26%29.96 "Hg10 mi
5:56 PM101 °FSunny.13 mph23%29.97 "Hg10 mi
4:56 PM102 °FSunny.9 mph23%29.97 "Hg10 mi
3:56 PM102 °FSunny.10 mph23%29.99 "Hg10 mi
2:56 PM102 °FSunny.10 mph23%30.01 "Hg10 mi
1:56 PM100 °FSunny.8 mph27%30.03 "Hg10 mi
12:56 PM97 °FSunny.9 mph32%30.05 "Hg10 mi
11:56 AM94 °FSunny.12 mph40%30.07 "Hg10 mi
10:56 AM91 °FSunny.13 mph45%30.08 "Hg10 mi
9:56 AM87 °FSunny.13 mph57%30.08 "Hg10 mi
8:56 AM83 °FPassing clouds.13 mph72%30.13 "Hg10 mi
7:56 AM80 °FClear.6 mph79%30.07 "Hg10 mi
Weather by CustomWeather, © 2014

See weather overviewHow to use our weather pages